Location: ??????????
(54.4061°N, 22.6114°E)
Time: 17:25:04
(UTC+00:00)

SKYMED 2 - Pass Details

Date: 23 October 2019
Orbit: 621 x 623 km, 97.9° (Epoch: 19 November)

Event Time Altitude Azimuth Distance (km) Brightness Sun altitude
Rises 16:35:03 0° 16° (NNE) 2,918 6.8 -12.4°
Reaches altitude 10° 16:37:17 10° 20° (NNE) 2,007 6.0 -12.7°
Maximum altitude 16:41:37 63° 102° (ESE) 701 3.5 -13.3°
Drops below altitude 10° 16:45:55 10° 184° (S) 1,990 6.2 -14.0°
Sets 16:48:07 0° 187° (S) 2,891 7.1 -14.3°
